PEGASUS DEB, 39310

Orbit data source: Space-Track

PEGASUS DEB, 39310 is space debris in LEO originally from a launch on Thu, 19 May 1994 UTC launched from the Air Force Western Test Range (AFWTR). Debris objects in space refer to the collection of defunct objects orbiting the Earth. Examples of debris include non-operational satellites, rocket bodies, and fragments generated from explosions, collisions, or faulty payload assembly.

Loading next visibility...
Identifier
39310, 1994-029AEV
Orbit
LEO
Country
Flag of USUS
Related business
Manufacturer
Unknown
Mission
Spacecraft
Bus & Motor
Unknown
Mass
Unknown
Launch date (UTC)
1994-05-19 (32 years ago)
Launch vehicle
Unknown
Launch site
Air Force Western Test Range (AFWTR)
Object type
Payload
Rocket body
Debris
Shape & HBR
Unknown shape, 0.1 m
Radar Cross Section
Small (<0.1 m²)

Expand to show TLE details & history
Last TLE update: 1 day ago

TLE from 1 day ago
0 PEGASUS DEB
1 39310U 94029AEV 26172.97309105  .00001950  00000-0  32941-3 0  9999
2 39310  81.8133  56.2292 0229923 314.1329  44.1153 14.53077678844875
Epoch: 2026-06-21T23:21Z
TLE epoch observation values (Epoch: 2026-06-21T23:21:15.066Z)
Latitude
-0.00008°
Longitude
155.75073°
Altitude
603.336 km
Speed
7.619 km/s
True Right ascension
03h 44m 55s
True Declination
0° 00' 00"
Sunlit
Object was in daylight at epoch
Visualization orbit readout
Latitude
Unknown
Longitude
Unknown
Altitude
Unknown
Speed
Unknown
Apparent Right ascension
Unknown
Apparent Declination
Unknown
Sunlit
N/A
Visualization observer readout
Local Sidereal Time
21:11:49
Azimuth
Unknown
Elevation
Unknown
Doppler factor
Unknown
Orbital elements
Apogee altitude
875.736 km
Perigee altitude
549.667 km
Semi-major axis
7,090.839 km
Eccentricity
0.02299
Inclination
81.8133°
RAAN
56.2292°
Arg. of periapsis
314.1329°
True anomaly
45.98762°
Mean anomaly
44.1153°
Eccentric anomaly
45.04759°
Mean motion
3.63494 °/min
Orbital period
99.04 mins
BSTAR
0.00032941
Loading maneuver chart data...
Computing Atmospheric mass density...

Documentation

Showing up to 5 results
|